This demonstration page uses our WeatherBlox Daily Observations layout. Learn more.

Left ArrowRight Arrow

Hourly Observations for July 28, 2015

Temp ( °F °C ) Dew Point ( °F °C ) Humidity (%) Winds ( mph kmh ) Pressure ( in mb ) Visibility ( mi km ) Precip ( " mm )
12:15 am 00:15 Partly Cloudy 75 24 73 23 94 94 SSW 6 9 30.03 1017 10 16 N/A
12:35 am 00:35 Partly Cloudy 75 24 73 23 94 94 N N/A 30.03 1017 10 16 N/A
12:55 am 00:55 Clear 73 23 73 23 100 100 N N/A 30.03 1017 10 16 N/A
1:15 am 01:15 Clear 73 23 73 23 100 100 WNW 10 17 30.03 1017 10 16 N/A
1:35 am 01:35 Clear 73 23 73 23 100 100 WNW 10 17 30.03 1017 10 16 N/A
1:55 am 01:55 Clear 72 22 72 22 100 100 WNW 7 11 30.03 1017 10 16 N/A
2:15 am 02:15 Clear 73 23 73 23 100 100 NE 3 6 30.03 1017 10 16 N/A
2:35 am 02:35 Partly Cloudy 73 23 73 23 100 100 N N/A 30.03 1017 10 16 N/A
2:55 am 02:55 Clear 72 22 72 22 100 100 NNE 6 9 30.03 1017 10 16 N/A
3:15 am 03:15 Clear 72 22 72 22 100 100 NNW 3 6 30.03 1017 7 11 N/A
3:35 am 03:35 Clear 72 22 72 22 100 100 WNW 6 9 30.03 1017 7 11 N/A
3:55 am 03:55 Clear 72 22 72 22 100 100 NNE 5 7 30.03 1017 10 16 N/A
4:15 am 04:15 Clear 72 22 72 22 100 100 SSW 6 9 30.03 1017 7 11 N/A
4:35 am 04:35 Clear 72 22 72 22 100 100 W 3 6 30.03 1017 7 11 N/A
4:55 am 04:55 Clear 72 22 72 22 100 100 NNW 5 7 30.03 1017 7 11 N/A
5:15 am 05:15 Clear 72 22 72 22 100 100 NW 5 7 30.03 1017 7 11 N/A
5:35 am 05:35 Clear with Mist and Fog 72 22 72 22 100 100 N N/A 30.03 1017 5 8 N/A
5:55 am 05:55 Partly Cloudy with Mist and Fog 70 21 70 21 100 100 NW 7 11 30.03 1017 5 8 N/A
6:15 am 06:15 Sunny with Mist and Fog 72 22 72 22 100 100 NNE 3 6 30.03 1017 5 8 N/A
6:35 am 06:35 Sunny with Mist and Fog 72 22 72 22 100 100 WNW 3 6 30.03 1017 4 6 N/A
6:55 am 06:55 Sunny with Mist and Fog 72 22 72 22 100 100 NNW 7 11 30.03 1017 4 6 N/A
7:35 am 07:35 Sunny with Mist and Fog 73 23 73 23 100 100 NNE 5 7 30.03 1017 5 8 N/A
7:55 am 07:55 Sunny with Mist and Fog 75 24 73 23 94 94 NE 3 6 30.03 1017 5 8 N/A
8:15 am 08:15 Sunny with Mist and Fog 75 24 73 23 94 94 N N/A 30.03 1017 5 8 N/A
8:35 am 08:35 Partly Cloudy with Mist and Fog 77 25 75 24 94 94 NE 3 6 30.03 1017 5 8 N/A
8:55 am 08:55 Mostly Cloudy 79 26 75 24 89 89 N 7 11 30.03 1017 7 11 N/A
9:15 am 09:15 Cloudy 79 26 77 25 94 94 N 5 7 30.06 1018 7 11 N/A
9:35 am 09:35 Mostly Cloudy with Mist and Fog 79 26 77 25 94 94 N 8 13 30.03 1017 5 8 N/A
9:55 am 09:55 Mostly Cloudy 81 27 77 25 89 89 ENE 3 6 30.03 1017 7 11 N/A
10:15 am 10:15 Partly Cloudy 81 27 77 25 89 89 N N/A 30.03 1017 7 11 N/A
10:35 am 10:35 Mostly Cloudy 82 28 77 25 84 84 NNE 6 9 30.03 1017 10 16 N/A
10:55 am 10:55 Cloudy 82 28 77 25 84 84 N N/A 30.03 1017 10 16 N/A
11:15 am 11:15 Partly Cloudy 86 30 75 24 70 70 N N/A 30.03 1017 10 16 N/A
11:35 am 11:35 Partly Cloudy 86 30 75 24 70 70 NNE 6 9 30.03 1017 10 16 N/A
11:55 am 11:55 Mostly Cloudy 88 31 77 25 70 70 E 6 9 30.00 1016 10 16 N/A
12:15 pm 12:15 Mostly Cloudy 86 30 73 23 66 66 N N/A 30.03 1017 10 16 N/A
12:35 pm 12:35 Partly Cloudy 88 31 75 24 66 66 NE 5 7 30.00 1016 10 16 N/A
12:55 pm 12:55 Partly Cloudy 88 31 73 23 62 62 S 5 7 30.00 1016 10 16 N/A
1:15 pm 13:15 Partly Cloudy 90 32 73 23 59 59 N N/A 29.97 1015 10 16 N/A
1:35 pm 13:35 Mostly Cloudy 88 31 73 23 62 62 N N/A 29.97 1015 10 16 N/A
1:55 pm 13:55 Mostly Cloudy 90 32 73 23 59 59 N N/A 29.97 1015 10 16 N/A
2:15 pm 14:15 Mostly Cloudy 88 31 73 23 62 62 ENE 5 7 29.97 1015 10 16 N/A
2:35 pm 14:35 Mostly Cloudy 90 32 73 23 59 59 ENE 5 7 29.94 1014 10 16 N/A
2:55 pm 14:55 Mostly Cloudy 90 32 73 23 59 59 N N/A 29.94 1014 10 16 N/A
3:15 pm 15:15 Cloudy 90 32 73 23 59 59 NNW 5 7 29.94 1014 10 16 N/A
3:35 pm 15:35 Cloudy 90 32 73 23 59 59 ENE 3 6 29.94 1014 10 16 N/A
3:55 pm 15:55 Partly Cloudy 91 33 73 23 56 56 N N/A 29.94 1014 10 16 N/A
4:15 pm 16:15 Mostly Cloudy 91 33 73 23 56 56 N 7 11 29.94 1014 10 16 N/A
4:35 pm 16:35 Mostly Cloudy 90 32 73 23 59 59 N 5 7 29.94 1014 10 16 N/A
4:55 pm 16:55 Mostly Cloudy 91 33 72 22 52 52 ENE 6 9 29.94 1014 10 16 N/A
5:15 pm 17:15 Partly Cloudy 90 32 72 22 55 55 SSE 6 9 29.94 1014 10 16 N/A
5:35 pm 17:35 Sunny 91 33 72 22 52 52 S 6 9 29.94 1014 10 16 N/A
5:55 pm 17:55 Mostly Cloudy 91 33 72 22 52 52 E 7 11 29.91 1013 10 16 N/A
6:15 pm 18:15 Partly Cloudy 90 32 72 22 55 55 SE 3 6 29.91 1013 10 16 N/A
6:35 pm 18:35 Sunny 90 32 73 23 59 59 SE 5 7 29.91 1013 10 16 N/A
6:55 pm 18:55 Sunny 90 32 72 22 55 55 ENE 6 9 29.94 1014 10 16 N/A
7:15 pm 19:15 Partly Cloudy with Nearby Thunderstorms 90 32 72 22 55 55 SSE 9 15 29.94 1014 10 16 N/A
7:35 pm 19:35 Mostly Cloudy 82 28 75 24 79 79 S 25 41 30.00 1016 10 16 N/A
7:55 pm 19:55 Cloudy 79 26 75 24 89 89 S 16 26 30.00 1016 10 16 N/A
8:15 pm 20:15 Mostly Cloudy 79 26 75 24 89 89 S 12 19 30.00 1016 10 16 N/A
8:35 pm 20:35 Mostly Cloudy 77 25 75 24 94 94 SSW 8 13 30.00 1016 10 16 N/A
8:55 pm 20:55 Partly Cloudy 77 25 75 24 94 94 SSW 10 17 30.00 1016 10 16 N/A
9:15 pm 21:15 Partly Cloudy 75 24 73 23 94 94 NW 5 7 30.00 1016 10 16 N/A
9:35 pm 21:35 Clear 75 24 73 23 94 94 SW 8 13 30.00 1016 10 16 N/A
9:55 pm 21:55 Partly Cloudy 77 25 73 23 89 89 S 8 13 30.03 1017 10 16 N/A
10:15 pm 22:15 Mostly Cloudy 77 25 73 23 89 89 SSW 10 17 30.03 1017 10 16 N/A
10:35 pm 22:35 Partly Cloudy 77 25 73 23 89 89 SSW 12 19 30.03 1017 10 16 N/A
10:55 pm 22:55 Clear 77 25 73 23 89 89 SSE 8 13 30.03 1017 10 16 N/A
11:15 pm 23:15 Clear 75 24 73 23 94 94 SSW 8 13 30.00 1016 10 16 N/A
11:35 pm 23:35 Clear 75 24 73 23 94 94 SSW 9 15 30.03 1017 10 16 N/A
11:55 pm 23:55 Clear 73 23 73 23 100 100 WSW 3 6 30.03 1017 10 16 N/A

Powered by AerisWeather